Simultaneous Nadir Overpasses (SNOs) Predictions

Prediction of SNOs over PacNW region [( 10.00, 139.50) to ( 22.70, 165.60)] between AQUA and NPP Satellites:

Table of predicted SNOs over PacNW region for the next 30.0 days since TLE Epoch: 7/26/2018
Index Date (AQUA) Time (AQUA) AQUA Lat,Lon Date (NPP) Time (NPP) NPP Lat,Lon Distance(km) Time Diff (sec)
1 07/30/2018 15:10:49 22.63, 159.69 07/30/2018 15:10:59 23.17, 157.33 248.84 10
2 08/07/2018 16:00:30 22.63, 147.26 08/07/2018 16:01:49 23.20, 144.64 276.21 79
3 08/15/2018 15:11:23 22.28, 159.47 08/15/2018 15:11:17 22.74, 157.19 239.86 6




NCC Satellite Simultaneous Nadir Overpasses (SNOs) Prediction Service
